Regional Weather Roundup
Issued by NWS Goodland, KS

Home | Current Version | Previous Version | Graphics & Text | Print | Product List | Glossary On
Versions: 1 2 3 4 5 6 7 8 9 10 11 12 13 14 15 16 17 18 19 20 21 22 23 24 25 26 27 28 29 30 31 32 33 34 35 36 37 38 39 40 41 42 43 44 45 46 47 48 49 50
000
ASUS43 KGLD 302259
RWRGLD

GOODLAND FORECAST AREA HOURLY WEATHER ROUNDUP
NATIONAL WEATHER SERVICE GOODLAND KS
400 PM MST FRI JAN 30 2015

...OFFICIAL OBSERVATIONS...

CITY           SKY/WX    TMP DP  RH WIND       PRES   REMARKS
GOODLAND KS    CLOUDY    41  32  70 S21G26    30.16S
HILL CITY KS   CLOUDY    44  27  51 S12G21    30.27F
IMPERIAL NEB   CLOUDY    48  29  47 S17G24    30.12F
MCCOOK NEB     CLOUDY    43  35  73 SE14      30.19F
AKRON CO       CLOUDY    44  29  55 NW6       30.06F
BURLINGTON CO  CLOUDY    37  31  78 S20       30.14S
LIMON CO       CLOUDY    40  30  67 S10       30.08F
$$

...UNOFFICIAL OBSERVATIONS...

CITY           SKY/WX    TMP DP  RH WIND       PRES   REMARKS
COLBY KS       CLOUDY    45  30  57 S18G25    30.19S
GOVE KS          N/A     43  32  65 MISG        N/A
NORTON KS      DRIZZLE   43  27  52 S12G17    30.24S
SHARON SPRINGS   N/A     37  33  87 S24G31      N/A
KIT CARSON CO    N/A     35  32  89 MISG        N/A
YUMA CO          N/A     46  32  58 N14         N/A
$$



USA.gov is the U.S. government's official web portal to all federal, state and local government web resources and services.